Regional Weather Roundup
Issued by NWS

Home | Current Version | Previous Version | Text Only | Print | Product List | Glossary Off
Versions: 1 2 3 4 5 6 7 8 9 10 11 12 13 14 15 16 17 18 19 20 21 22 23 24 25 26 27 28 29 30 31 32 33 34 35 36 37 38 39 40 41 42 43 44 45 46 47 48 49 50

000
ASUS45 KPSR 190410
RWRAZ

ARIZONA REGIONAL HOURLY WEATHER ROUNDUP
NATIONAL WEATHER SERVICE PHOENIX AZ
900 PM MST SAT APR 18 2015

NOTE: FAIR INDICATES FEW OR NO CLOUDS BELOW 12,000 FEET WITH NO
SIGNIFICANT WEATHER AND/OR OBSTRUCTIONS TO VISIBILITY.

AZZ001>003-036-190500-
NORTHWEST ARIZONA

CITY           SKY/WX    TMP DP  RH WIND       PRES   REMARKS
BULLHEAD CITY  CLEAR     81  14   8 E3        29.79R
KINGMAN        CLEAR     54  14  20 S7        29.95R
$$

AZZ004>008-015-016-018-190500-
NORTH CENTRAL ARIZONA

CITY           SKY/WX    TMP DP  RH WIND       PRES   REMARKS
GRAND CANYON   CLEAR     36  13  38 CALM      30.08R
WILLIAMS       CLEAR     43  18  36 CALM      30.15R
PRESCOTT       CLEAR     60  13  15 SW13      30.01R
FLAGSTAFF      CLEAR     42  13  30 CALM      30.09R
PAYSON         PTCLDY    61  14  16 SW5       30.04R
PAGE           CLEAR     67  24  19 CALM      29.95R
$$

AZZ009>014-017-190500-
NORTHEAST ARIZONA

CITY           SKY/WX    TMP DP  RH WIND       PRES   REMARKS
WINSLOW        PTCLDY    50  12  21 SW9       29.99R
SAINT JOHNS    CLEAR     50  14  23 W6        30.00R
WINDOW ROCK    CLEAR     39  15  37 S5        30.05R
SHOW LOW       PTCLDY    48  19  32 S8        30.07R
$$

AZZ023-190500-
GREATER PHOENIX AREA

CITY           SKY/WX    TMP DP  RH WIND       PRES   REMARKS
PHOENIX        CLEAR     80  17   9 SW6       29.81R
BUCKEYE        CLEAR     75  21  13 SW9       29.84R
LUKE AFB       CLEAR     79  21  11 SW9       29.81R
DEER VALLEY    CLEAR     76  15  10 W3        29.83R
SCOTTSDALE     CLEAR     80  13   8 W5        29.85R
MESA-GATEWAY   CLEAR     73  21  14 SW7       29.86R
CHANDLER       CLEAR     75  21  13 SW9       29.84R
$$

AZZ027-028-190500-
SOUTHWEST MARICOPA COUNTY AND PINAL COUNTY

CITY           SKY/WX    TMP DP  RH WIND       PRES   REMARKS
CASA GRANDE    CLEAR     73  19  13 W5        29.85R
$$

AZZ503-504-507>509-190500-
SOUTHEAST ARIZONA

CITY           SKY/WX    TMP DP  RH WIND       PRES   REMARKS
TUCSON         CLEAR     70  16  12 NW3       29.95R
DAVIS-MONTHAN  CLEAR     66  17  15 CALM      29.94R
NOGALES        CLEAR     58  21  24 NE5       30.00R
SIERRA VISTA   CLEAR     59  16  18 W10       30.05R
DOUGLAS        CLEAR     54  20  26 N12       30.01R
SAFFORD        CLEAR     66  16  14 NW14      29.91R
$$

AZZ020-021-025-026-031-190500-
SOUTHWEST ARIZONA

CITY           SKY/WX    TMP DP  RH WIND       PRES   REMARKS
YUMA           CLEAR     77  39  25 S7        29.84R
$$

CAZ031-033-041-043-047-048-061-190500-
SOUTHERN CALIFORNIA

CITY           SKY/WX    TMP DP  RH WIND       PRES   REMARKS
DOWNTOWN L.A.  CLEAR     62  52  69 W3        29.95R
L.A. AIRPORT   PTCLDY    59  55  87 W10       29.96R
SAN DIEGO      PTCLDY    65  57  75 W5        29.98R
BURBANK        CLEAR     66  45  46 S5        29.94R
ONTARIO        PTCLDY    67  46  47 W7        29.95R
RIVERSIDE      CLEAR     70  47  43 VRB5      29.95R
PALM SPRINGS   CLEAR     84  27  12 NW13G21   29.83R
EL CENTRO NAS  CLEAR     77  27  15 SW9       29.82R
IMPERIAL       CLEAR     77  32  19 SW8       29.81R
BLYTHE         CLEAR     83  20   9 SW9       29.80R
NEEDLES        CLEAR     81  10   7 W7        29.79R
$$

NVZ020-UTZ003-190500-
SOUTHERN NEVADA-UTAH

CITY           SKY/WX    TMP DP  RH WIND       PRES   REMARKS
LAS VEGAS      CLEAR     79  13   8 S12       29.80R
SALT LAKE CITY CLEAR     57  36  45 CALM      29.99R
$$

NMZ009-TXZ055-190500-
NEW MEXICO-WEST TEXAS

CITY           SKY/WX    TMP DP  RH WIND       PRES   REMARKS
ALBUQUERQUE    PTCLDY    55  24  30 N5        29.97S
EL PASO        PTCLDY    71  16  12 W20       29.90R
$$


........................KEY........................
SKY/WX - SKY CONDITION/WEATHER
TMP    - TEMPERATURE IN FAHRENHEIT
DP     - DEW POINT IN FAHRENHEIT
RH     - RELATIVE HUMIDITY IN PERCENT
WIND   - DIRECTION AND SPEED IN MILES PER HOUR (MPH)
VRB    - VARIABLE WIND DIRECTION
PRES   - MEAN SEA LEVEL PRESSURE IN INCHES OF MERCURY
         F - FALLING PRESSURE   R - RISING PRESSURE
         S - STEADY PRESSURE
VSB    - VISIBILITY IN MILES
HX     - HEAT INDEX IN FAHRENHEIT
WCI    - WIND CHILL INDEX IN FAHRENHEIT
TC     - TEMPERATURE IN CELSIUS WHICH IS ALSO KNOWN AS
         TEMPERATURE IN CENTIGRADE
AFB    - AIR FORCE BASE
         LUKE AFB IS LUKE AIR FORCE BASE
         DAVIS-MONTHAN IS DAVIS-MONTHAN AIR FORCE BASE
NAS    - NAVAL AIR STATION
         EL CENTRO NAS IS EL CENTRO NAVAL AIR STATION
N/A    - NOT AVAILABLE




USA.gov is the U.S. government's official web portal to all federal, state and local government web resources and services.